Regional Weather Roundup
Issued by NWS Goodland, KS

Home | Current Version | Previous Version | Graphics & Text | Print | Product List | Glossary Off
Versions: 1 2 3 4 5 6 7 8 9 10 11 12 13 14 15 16 17 18 19 20 21 22 23 24 25 26 27 28 29 30 31 32 33 34 35 36 37 38 39 40 41 42 43 44 45 46 47 48 49 50

000
ASUS43 KGLD 241059
RWRGLD

GOODLAND FORECAST AREA HOURLY WEATHER ROUNDUP
NATIONAL WEATHER SERVICE GOODLAND KS
500 AM MDT MON JUL 24 2017

...OFFICIAL OBSERVATIONS...

CITY           SKY/WX    TMP DP  RH WIND       PRES   REMARKS
GOODLAND KS    CLEAR     69  61  75 S13       30.06F
HILL CITY KS   CLEAR     64  64 100 CALM      30.02R FOG
IMPERIAL NEB   CLEAR     63  55  75 SW6       30.03R
MCCOOK NEB     CLEAR     65  65 100 E3        30.02R FOG
AKRON CO       CLEAR     69  60  73 S14G22    30.09R
BURLINGTON CO  CLEAR     65  61  87 S9        30.10S
LIMON CO       CLEAR     62  60  93 SE7       30.16S
$$

...UNOFFICIAL OBSERVATIONS...

CITY           SKY/WX    TMP DP  RH WIND       PRES   REMARKS
LENORA KS        N/A     66  32  28 MISG        N/A
NORTON KS      CLEAR     68  63  83 E3        30.01S
SHARON SPRINGS   N/A     65  61  87 S9          N/A
TRENTON NEB      N/A     65  32  29 CALM        N/A
KIT CARSON CO    N/A     59  53  79 CALM        N/A
YUMA CO        FAIR      64  54  68 SW9       30.06S
$$



USA.gov is the U.S. government's official web portal to all federal, state and local government web resources and services.